Location: Krakow
(50.0830°N, 19.9170°E)
Time: 13:30:54
(UTC+01:00)

Injun/Solrad 3 - Visible Passes

Search period start: 15 March 2026 00:00
Search period end: 25 March 2026 00:00
Orbit: 871 x 985 km, 66.8° (Epoch: 14 March)

Date Brightness Start Highest point End Pass type
(mag) Time Alt. Az. Time Alt. Az. Time Alt. Az.
15 Mar 9.9 04:18:15 10° SSE 04:23:00 26° ESE 04:27:50 10° NE visible
16 Mar 9.3 04:28:25 10° S 04:33:46 38° ESE 04:39:15 10° NE visible
17 Mar 8.6 04:38:55 10° SSW 04:44:37 54° ESE 04:50:30 10° NE visible
18 Mar 10.3 03:06:52 10° SE 03:10:07 15° ESE 03:13:24 10° ENE visible
18 Mar 8.0 04:49:42 10° SSW 04:55:34 77° ESE 05:01:39 10° NE visible
19 Mar 9.9 03:16:18 10° SSE 03:20:46 23° ESE 03:25:20 10° ENE visible
19 Mar 7.9 05:00:41 10° SW 05:06:36 78° NW 05:12:43 10° NE visible
20 Mar 9.3 03:26:20 10° S 03:31:31 33° ESE 03:36:50 10° NE visible
20 Mar 8.0 05:11:54 10° SW 05:17:43 57° NW 05:23:45 10° NNE visible
21 Mar 8.6 03:37:35 14° S 03:42:21 48° ESE 03:48:08 10° NE visible
22 Mar 10.2 02:05:18 10° SE 02:07:56 13° E 02:10:36 10° ENE visible
22 Mar 8.1 03:48:48 18° SSW 03:53:16 69° ESE 03:59:18 10° NE visible
23 Mar 9.8 02:16:17 16° SE 02:18:34 20° ESE 02:22:48 10° ENE visible
23 Mar 7.8 03:59:56 19° SW 04:04:16 86° NW 04:10:24 10° NE visible
24 Mar 9.2 02:27:20 24° SE 02:29:17 30° ESE 02:34:25 10° NE visible
24 Mar 7.9 04:10:58 18° SW 04:15:22 63° NW 04:21:27 10° NNE visible
